Home   Weather   Ostermundigen   Past weeks

Flag for Switzerland Past Weather in Ostermundigen, Bern, Switzerland — Yesterday and Last 2 Weeks

Now
16 °F

Ice fog.


Feels Like: 16 °F
Forecast: 9 / 24 °F
Wind: 2 mph from North

Location: Bern / Belp

Current Time: Jan 24, 2017 at 8:29:43 am

Latest Report: Jan 24, 2017 at 7:50 am


Visibility: 2 mi

Pressure: 30.21 "Hg (28.11 "Hg at 556m altitude)

Humidity: 93%

Dew Point: 14 °F

Location of OstermundigenLocation

Past Weather in Ostermundigen — Graph

°F

Ostermundigen Temperature Yesterday

Maximum temperature yesterday: 25 °F (at 3:20 pm)
Minimum temperature yesterday: 16 °F (at 10:20 pm)
Average temperature yesterday: 20 °F

High & Low Weather Summary for the Past Weeks

 TemperatureHumidityPressure
High45 °F (Jan 12, 5:50 am)100% (Jan 9, 7:20 am)30.42 "Hg (Jan 9, 7:20 am)
Low1 °F (Jan 16, 7:50 am)64% (Jan 14, 4:20 pm)29.53 "Hg (Jan 12, 11:20 pm)
Average26 °F85%30.13 "Hg
* Reported Jan 9 7:20 am — Jan 24 7:20 am, Ostermundigen, Weather by CustomWeather, © 2017

Note: Actual official high and low records may vary slightly from our data, if they occured in-between our weather recording intervals... More about our weather records

Advertising

Ostermundigen Weather History for the Previous 24 Hours

Scroll right to see more
 ConditionsComfort  
Time TempWeatherWind HumidityBarometerVisibility
7:20 am
Tue, Jan 24
16 °FIce fog.2 mph93%30.21 "Hg2 mi
6:50 am16 °FIce fog.5 mph93%30.21 "Hg2 mi
6:20 am16 °FIce fog.2 mph93%30.21 "Hg2 mi
5:50 am16 °FIce fog.2 mph93%30.21 "Hg2 mi
5:20 am16 °FIce fog.5 mph93%30.18 "Hg2 mi
4:50 am16 °FIce fog.3 mph93%30.18 "Hg1 mi
4:20 am16 °FIce fog.2 mph93%30.18 "Hg1 mi
3:50 am16 °FIce fog.3 mph93%30.18 "Hg2 mi
3:20 am16 °FIce fog.2 mph93%30.18 "Hg2 mi
2:50 am18 °FIce fog.3 mph93%30.18 "Hg2 mi
2:20 am18 °FIce fog.5 mph93%30.18 "Hg2 mi
1:50 am18 °FIce fog.2 mph93%30.18 "Hg2 mi
1:20 am18 °FIce fog.2 mph93%30.18 "Hg2 mi
12:50 am18 °FIce fog.2 mph93%30.18 "Hg1 mi
12:20 am18 °FIce fog.2 mph93%30.18 "Hg0 mi
11:50 pm
Mon, Jan 23
18 °FIce fog.3 mph93%30.18 "Hg1 mi
11:20 pm18 °FIce fog.2 mph93%30.15 "Hg0 mi
10:50 pm16 °FIce fog.2 mph93%30.15 "Hg0 mi
10:20 pm16 °FIce fog.3 mph93%30.15 "Hg0 mi
9:50 pm18 °FIce fog.3 mph93%30.15 "Hg0 mi
9:20 pm18 °FIce fog.3 mph93%30.15 "Hg0 mi
8:50 pm18 °FIce fog.2 mph100%30.15 "Hg0 mi
8:20 pm19 °FIce fog.2 mph93%30.15 "Hg0 mi
7:50 pm19 °FIce fog.3 mph93%30.15 "Hg0 mi
7:20 pm19 °FIce fog.3 mph93%30.15 "Hg0 mi
6:50 pm19 °FIce fog.3 mph93%30.15 "Hg0 mi
6:20 pm19 °FIce fog.5 mph93%30.15 "Hg1 mi
5:50 pm19 °FIce fog.5 mph93%30.15 "Hg1 mi
4:50 pm18 °FIce fog.3 mph93%30.15 "Hg1 mi
4:20 pm23 °FIce fog.5 mph93%30.15 "Hg3 mi
3:50 pm23 °FIce fog.3 mph100%30.15 "Hg3 mi
3:20 pm25 °FIce fog.6 mph93%30.12 "Hg2 mi
2:50 pm23 °FIce fog.2 mph93%30.12 "Hg2 mi
2:20 pm23 °FIce fog.1 mph93%30.15 "Hg2 mi
1:50 pm23 °FIce fog.1 mph93%30.15 "Hg1 mi
1:20 pm21 °FIce fog.No wind93%30.15 "Hg1 mi
12:50 pm21 °FIce fog.2 mph93%30.18 "Hg1 mi
12:20 pm21 °FIce fog.1 mph93%30.18 "Hg1 mi
11:50 am19 °FIce fog.2 mph93%30.18 "Hg1 mi
11:20 am21 °FIce fog.3 mph93%30.18 "Hg1 mi
10:50 am19 °FIce fog.3 mph93%30.18 "Hg1 mi
10:20 am19 °FIce fog.2 mph93%30.18 "Hg1 mi
9:50 am19 °FIce fog.1 mph93%30.18 "Hg0 mi
9:20 am19 °FIce fog.2 mph93%30.18 "Hg1 mi
8:50 am19 °FIce fog.1 mph93%30.18 "Hg1 mi
8:20 am19 °FIce fog.2 mph93%30.18 "Hg1 mi
Weather by CustomWeather, © 2017

See weather overviewHow to use our weather pages